Wind_Speed
29 28 27 26 25 23 21 19 18 17 17 16 14 14 12 10 9 8 7 7 7 7 9 10 12 13 15 17 18 20 20 21 22 23 24 24 24 25 25 26 27 28 30 32 34 36 39 41 42 42 41 40 38 35 30 25 20 15 11 8 4 1 1 3 4 5 7 9 10 10 9 8 7 7 8 9 8 7 6 5 6 6 4 3 3 3 2 2
32 31 30 29 28 26 24 22 20 20 19 19 18 16 15 13 12 11 9 8 8 8 8 9 11 12 13 15 17 18 19 20 20 21 23 23 23 23 24 25 25 27 28 30 32 34 36 39 41 41 41 40 39 36 32 28 23 18 13 9 6 3 1 2 3 3 4 7 10 10 10 9 8 7 8 8 8 8 6 5 5 6 5 5 5 4 2 1
34 34 33 32 31 29 27 26 24 22 21 21 20 19 18 16 15 13 12 11 10 9 8 9 10 11 12 14 15 17 18 19 19 20 21 22 22 22 23 24 24 25 27 28 30 31 33 36 39 40 40 40 39 37 34 30 26 23 18 13 9 5 4 2 2 3 3 4 7 9 10 10 9 7 7 6 6 6 5 3 4 3 3 3 3 2 2 1
37 36 35 35 34 32 31 29 27 25 24 23 23 22 21 19 17 16 15 13 12 11 10 10 10 11 12 13 14 16 17 19 19 19 20 21 21 21 21 23 23 24 25 26 28 30 31 33 36 38 40 40 39 38 35 32 29 26 22 18 13 8 5 4 4 4 4 4 6 8 9 10 9 8 6 4 3 4 4 3 3 2 2 1 1 1 2 3
39 38 37 37 36 35 34 32 30 28 27 25 25 24 23 22 20 18 17 16 14 13 12 11 11 11 12 12 13 15 16 18 18 18 19 19 20 20 20 21 22 23 24 25 26 28 29 31 34 37 39 39 39 38 36 34 30 28 25 21 17 12 8 4 5 5 6 7 7 8 9 9 9 8 6 3 1 1 2 3 3 3 3 3 3 3 4 5
41 40 40 39 39 38 37 35 33 31 30 28 27 26 25 24 22 21 20 18 16 15 13 13 12 11 11 12 13 14 15 17 18 18 18 18 19 19 20 20 21 22 23 24 25 27 28 29 31 34 37 39 39 38 37 35 32 29 27 24 20 16 12 8 6 6 8 10 9 9 9 9 8 7 6 5 4 4 3 3 4 5 5 5 6 6 6 7
44 43 42 42 41 40 39 37 35 34 32 31 30 28 27 26 25 23 22 20 19 17 15 14 14 13 12 12 13 14 14 16 17 17 17 18 18 18 19 19 19 21 22 23 24 26 27 28 29 32 35 38 39 38 36 35 34 30 28 26 23 20 16 10 6 6 9 11 11 8 8 8 6 5 5 4 5 5 5 5 5 5 7 7 7 7 8 8
44 45 45 44 44 43 42 40 38 36 35 34 33 31 30 29 27 25 24 22 21 19 17 16 15 15 13 12 13 13 14 15 16 17 17 17 17 17 18 19 19 19 20 22 23 25 26 27 28 30 33 36 38 38 36 36 35 32 30 28 26 22 17 11 6 4 6 8 9 8 6 5 5 4 4 4 4 4 5 5 6 6 7 8 8 8 8 9
44 45 46 46 46 45 44 43 41 39 37 36 35 33 32 31 30 28 26 24 23 21 19 17 16 16 15 14 13 13 14 14 15 16 16 17 17 17 17 18 19 18 19 21 22 24 25 26 26 28 30 34 37 38 37 35 35 33 31 29 27 24 19 13 9 4 2 4 5 6 6 6 5 4 3 3 4 5 6 7 7 7 8 9 9 9 9 9
45 45 47 48 48 47 46 45 43 41 40 39 38 36 35 34 32 31 28 26 25 23 21 19 17 17 16 15 14 13 14 14 15 15 16 16 16 17 16 16 18 18 18 19 21 23 24 25 26 26 28 31 35 37 37 35 35 34 32 30 29 26 22 16 12 8 5 3 1 2 3 4 3 3 4 5 5 6 6 7 8 8 9 10 10 11 11 10
47 46 47 48 49 49 49 47 45 44 42 41 40 38 37 36 35 33 31 29 27 25 23 21 19 18 17 16 15 14 14 15 15 15 16 16 16 16 16 16 16 17 18 18 19 21 23 24 25 25 27 29 32 35 36 36 35 34 33 31 29 27 24 20 16 13 10 7 4 2 1 1 1 3 5 6 5 5 6 7 8 8 8 9 10 11 12 12
49 48 48 48 49 51 51 50 48 46 45 44 42 41 39 38 37 36 34 32 30 28 25 23 22 20 18 17 16 16 15 15 15 16 16 16 16 16 16 16 15 16 17 17 18 20 21 23 24 25 25 27 29 33 35 36 35 34 33 32 30 27 25 24 21 17 13 9 5 2 1 1 1 2 4 4 5 4 5 7 7 7 8 9 10 11 11 11
52 50 50 49 50 50 51 51 50 48 47 46 44 43 42 40 39 38 36 34 32 30 28 26 24 22 20 19 18 17 16 16 16 16 16 17 17 16 16 16 15 15 16 16 16 18 20 21 23 24 24 25 27 30 33 35 35 34 33 32 30 27 26 26 24 20 15 11 7 4 2 0 1 2 3 3 4 4 4 5 6 6 7 8 9 10 10 11
55 53 52 51 51 51 51 52 52 51 50 48 47 45 44 43 42 41 39 37 35 33 31 29 26 24 23 21 19 19 17 17 17 16 17 17 17 17 16 16 15 14 15 16 16 16 18 19 21 22 23 23 24 27 30 33 35 34 33 32 30 28 27 25 24 21 17 14 11 8 6 3 0 1 2 3 3 3 4 4 5 6 7 7 8 9 10 11
58 56 55 53 53 52 52 52 52 52 52 51 49 48 47 45 44 43 41 39 37 36 34 32 29 27 25 23 22 20 19 18 17 17 17 18 18 17 16 16 15 15 14 15 15 15 16 18 19 20 21 22 23 25 28 31 34 34 33 31 29 29 28 25 23 21 19 16 13 10 7 5 3 1 0 2 2 2 3 3 4 5 6 7 8 9 10 11
59 59 58 56 55 54 54 53 52 53 53 53 52 50 49 48 46 45 44 42 40 38 36 35 32 30 27 25 24 22 21 20 19 18 18 18 18 18 17 16 16 15 14 14 15 14 15 16 18 19 20 20 21 23 25 29 31 33 32 30 28 28 28 26 23 20 18 17 15 12 9 7 5 3 3 2 2 2 2 3 4 5 6 8 9 10 11 12
61 60 59 59 58 57 55 54 53 53 54 54 54 53 51 50 49 48 47 44 42 41 39 37 36 33 30 28 27 25 23 22 20 19 19 19 18 18 18 17 16 16 15 14 14 14 14 15 16 18 19 19 21 21 23 26 29 31 31 30 28 27 27 26 24 21 18 16 15 14 12 10 8 6 6 5 6 6 6 6 7 7 7 8 10 10 11 12
62 61 61 60 60 59 58 56 55 55 55 55 55 55 54 52 51 50 49 47 45 43 42 40 38 36 33 31 29 27 25 24 22 21 20 20 19 19 18 18 16 16 15 14 14 14 14 15 16 17 18 19 20 20 21 23 25 28 30 30 29 28 26 26 25 24 21 18 15 14 13 11 9 8 8 7 8 8 8 8 8 8 8 9 10 11 12 13
64 63 62 61 60 60 60 59 57 56 56 56 56 56 55 55 54 53 51 49 48 46 44 42 41 39 37 34 32 30 28 26 24 23 22 21 20 19 19 18 17 16 16 15 14 14 14 14 15 16 17 18 19 20 20 21 22 24 26 28 28 28 27 26 25 24 23 21 18 15 14 12 10 9 9 9 10 9 9 9 10 10 10 10 10 11 12 13
66 65 64 62 61 61 61 60 59 58 57 57 57 57 56 56 55 55 53 52 50 48 46 45 43 42 40 37 35 33 31 29 27 25 24 22 21 20 19 19 18 17 17 16 15 14 14 14 15 16 17 18 18 19 20 20 20 21 23 24 27 27 26 25 25 25 24 23 21 19 17 16 14 13 12 11 11 11 11 11 11 11 11 11 11 12 12 12
67 67 66 65 63 62 62 61 61 60 59 58 58 58 57 57 57 56 55 54 53 51 49 47 46 44 43 41 39 36 33 31 29 27 26 24 23 21 21 20 18 18 17 17 16 14 14 14 14 15 16 17 18 19 19 19 19 19 21 22 24 26 26 25 25 24 24 23 22 21 20 19 19 18 17 15 13 13 13 13 14 14 14 13 14 14 14 14
66 67 68 68 66 65 64 62 61 62 61 60 59 58 58 58 58 58 57 56 55 53 52 50 48 46 45 43 41 39 37 34 32 29 28 27 24 23 22 21 19 18 18 17 17 15 14 15 14 14 15 16 18 18 19 19 18 18 19 20 22 23 25 25 25 24 23 23 23 23 22 21 21 21 20 19 17 16 15 16 16 17 17 16 16 16 16 16
66 67 67 68 68 68 66 64 63 62 62 62 61 60 59 58 59 59 58 58 57 55 54 52 51 49 47 45 44 42 40 37 34 32 30 29 26 25 23 22 20 19 19 18 18 16 15 15 15 14 15 15 16 17 18 18 18 18 18 19 20 21 23 24 24 24 23 23 23 23 23 22 22 22 22 21 20 19 18 17 18 19 20 19 18 18 18 18
66 67 67 68 69 69 69 67 65 64 63 63 62 62 60 59 59 60 60 59 58 57 56 55 53 51 49 47 46 44 42 39 36 35 33 30 28 27 25 23 22 20 20 19 19 17 16 16 16 15 15 15 16 16 17 18 19 19 18 18 19 19 21 22 23 24 24 23 22 22 22 22 22 22 22 22 22 21 20 19 18 19 20 21 21 20 19 20
66 67 68 68 68 69 71 70 68 66 64 63 63 63 62 61 60 60 61 61 60 59 58 57 56 54 52 50 48 46 44 41 38 37 35 32 30 29 27 25 23 22 21 20 19 19 17 17 17 16 16 16 16 16 17 17 18 19 19 19 19 19 19 20 21 22 23 24 23 22 21 22 22 22 22 22 22 22 22 21 20 19 20 21 22 21 21 22
67 67 68 68 69 69 71 71 71 69 67 65 64 63 64 63 61 61 61 62 62 60 60 59 58 56 54 52 50 48 46 43 40 39 37 35 33 31 29 27 25 23 22 21 20 20 19 18 18 18 17 17 17 17 17 17 18 19 19 19 20 20 20 20 20 21 21 22 23 22 21 21 21 21 21 21 21 21 21 21 21 20 20 21 23 23 22 23
67 68 68 69 69 70 71 71 72 72 70 68 66 64 64 64 63 62 62 63 63 62 62 61 59 57 56 54 52 50 47 45 43 41 39 37 35 33 32 30 27 25 24 23 22 21 20 20 19 19 19 19 19 19 18 18 18 19 19 20 20 20 20 20 20 20 20 20 21 22 22 21 21 21 21 21 21 20 20 21 20 20 21 22 23 24 24 23
68 68 68 69 70 71 72 72 72 73 73 71 69 67 66 65 65 65 64 64 63 62 63 62 61 59 58 56 54 51 49 48 45 42 40 39 37 36 35 32 30 28 26 25 24 23 22 21 20 20 20 20 20 20 20 20 20 20 20 20 20 21 20 20 20 21 21 20 20 21 21 22 21 21 21 21 21 21 20 21 21 20 20 21 23 24 24 24
70 70 69 69 70 72 73 73 73 73 74 74 72 70 68 67 67 67 66 64 63 63 64 63 62 61 59 58 56 54 52 50 47 45 43 41 39 39 37 35 33 30 28 27 26 25 24 23 22 22 22 22 22 22 22 22 21 21 21 22 22 22 22 21 21 21 21 21 21 21 21 21 21 21 22 22 22 22 21 21 22 21 21 21 22 24 25 25
72 72 71 70 70 72 74 74 74 74 74 75 75 73 71 69 68 68 68 66 64 65 65 64 63 63 61 60 58 56 54 52 50 47 45 43 41 41 40 38 35 32 30 30 29 28 26 25 23 23 23 23 23 24 23 23 23 22 23 23 23 24 24 23 23 22 22 22 22 22 21 21 21 21 23 23 23 24 23 22 23 23 23 23 23 24 25 26
74 73 73 72 71 71 73 75 76 75 75 76 76 76 74 72 70 69 68 67 66 66 66 65 65 64 63 62 60 58 55 54 52 50 47 45 43 43 42 40 37 35 33 32 32 31 29 27 26 24 24 24 24 25 25 25 24 24 24 24 25 25 26 26 25 24 24 23 23 22 22 22 22 21 23 24 24 25 25 24 24 24 25 26 25 25 26 27
76 75 74 74 72 72 72 75 77 77 76 77 77 78 77 75 72 70 69 69 70 69 67 66 65 65 65 64 62 59 57 55 53 52 50 47 44 44 44 42 39 37 36 35 35 33 31 30 28 26 25 25 25 26 26 26 26 25 25 26 26 27 28 28 28 27 26 26 25 24 24 24 23 22 23 24 25 25 26 26 26 26 27 27 28 28 28 29
77 77 76 75 74 73 72 74 77 78 78 78 79 79 79 77 75 72 72 72 71 70 69 67 66 66 66 65 63 60 59 57 55 54 51 49 46 45 44 43 42 41 40 39 37 35 34 33 31 28 27 26 26 26 27 28 28 28 28 28 28 29 30 30 31 30 30 29 28 27 27 27 26 24 24 24 25 26 27 28 29 29 29 29 30 30 30 31
79 78 78 76 75 75 74 74 76 78 79 80 80 80 80 78 77 76 76 74 72 71 71 69 68 67 66 65 63 62 60 58 57 55 53 51 48 46 45 45 45 45 43 42 39 38 37 36 33 30 29 29 28 27 28 28 29 29 29 29 30 31 31 32 32 33 33 32 31 30 29 29 28 27 26 26 26 27 27 29 30 31 31 31 32 32 32 32
80 80 79 78 77 76 76 76 76 77 79 81 81 80 80 81 81 81 79 76 73 73 72 71 69 68 67 65 64 63 62 60 59 57 55 52 50 49 48 48 48 47 46 44 42 41 40 38 35 33 31 31 30 29 29 29 29 30 30 30 31 32 33 32 33 34 34 35 34 33 32 32 31 30 29 28 28 28 28 30 31 33 34 34 34 34 34 34
82 82 81 79 78 78 78 78 77 77 79 81 82 81 82 84 84 83 81 78 76 74 73 73 72 70 68 67 65 65 64 62 61 59 56 54 53 52 51 50 49 49 49 48 46 44 42 40 38 35 34 34 33 32 31 31 31 32 32 32 33 33 34 34 34 35 36 36 37 36 35 35 34 33 32 32 31 30 30 31 32 34 35 36 37 36 36 36
82 82 82 80 80 79 79 79 78 77 78 81 82 82 84 86 86 84 82 80 79 77 75 75 74 72 70 68 67 66 65 64 62 61 59 57 56 55 54 53 52 52 52 50 48 47 44 42 41 39 38 37 36 35 34 33 33 33 33 34 34 35 35 35 36 37 37 38 39 39 38 38 37 36 35 35 34 33 33 33 34 35 36 38 38 39 39 39
82 83 82 81 81 80 80 80 79 78 78 79 81 83 86 87 87 86 85 83 81 79 78 77 75 73 71 70 68 67 66 65 64 63 61 59 58 57 57 56 55 54 54 52 50 49 47 45 44 43 41 39 38 37 37 36 35 35 35 36 36 36 37 37 37 38 39 40 40 40 40 39 39 38 38 38 38 37 36 36 36 37 38 39 40 40 40 41
82 83 82 82 81 81 81 81 80 79 78 78 81 84 86 88 89 88 87 85 84 82 80 78 76 75 73 72 70 68 67 66 66 65 63 62 60 59 59 59 57 56 55 53 52 52 51 49 47 45 44 43 41 41 40 39 38 38 38 38 38 38 38 38 39 40 41 42 42 42 42 41 40 40 40 40 41 40 39 39 38 39 40 41 42 42 43 43
81 82 82 82 82 81 81 81 80 79 78 79 81 84 87 89 90 90 89 88 86 84 82 80 78 77 76 74 71 69 68 67 66 66 66 64 62 61 62 61 59 57 56 55 54 54 54 52 49 48 47 46 45 44 43 41 41 41 40 40 39 39 39 40 40 42 43 44 44 45 45 43 41 41 41 42 42 42 42 41 41 41 41 42 43 44 45 45
79 81 82 81 81 81 81 81 80 79 79 80 82 85 88 89 90 91 91 90 88 86 84 82 80 79 77 75 73 71 70 68 68 68 67 65 64 64 63 61 60 59 57 56 56 57 57 55 52 51 50 49 47 47 46 44 43 43 42 42 41 40 41 41 43 44 44 45 46 47 47 46 43 42 43 44 44 44 44 43 43 43 43 44 45 46 47 47
76 79 81 81 81 81 81 80 80 79 79 81 83 85 88 89 89 91 93 93 91 89 86 84 83 81 79 77 75 73 71 70 69 69 67 66 66 66 65 63 62 61 59 58 58 59 59 58 55 53 52 52 51 50 49 47 46 45 44 43 42 42 43 43 44 45 46 47 47 48 49 49 46 45 45 45 45 45 45 45 45 45 45 46 47 47 49 49
73 76 79 80 80 80 80 79 79 79 79 81 83 85 87 89 89 91 93 95 93 91 89 87 85 83 81 79 76 75 73 71 70 69 68 68 69 68 66 64 64 63 61 60 61 61 61 59 57 55 55 54 53 53 51 50 49 47 45 44 43 44 44 44 46 47 47 48 49 49 52 52 50 48 47 46 47 47 47 47 47 47 47 47 48 49 50 51
70 74 77 78 79 79 79 79 79 79 79 81 83 85 87 88 89 90 93 95 95 93 91 89 87 85 83 80 78 77 75 73 71 70 70 70 70 69 68 66 65 64 63 63 63 63 62 61 59 58 57 55 55 55 55 54 52 48 46 46 46 46 45 45 47 48 49 50 51 51 54 54 53 51 50 48 48 49 49 49 49 49 49 49 50 51 52 53
67 70 74 76 77 78 78 78 78 79 79 80 83 84 86 88 90 90 92 96 97 95 93 91 89 87 85 82 80 78 76 74 73 72 71 71 71 71 70 68 67 66 65 65 65 64 63 62 61 60 58 58 58 58 58 56 52 49 49 50 48 47 47 47 48 49 50 52 52 53 55 55 55 54 53 51 50 51 51 51 51 51 51 51 52 53 54 55
63 67 71 73 75 76 77 78 78 78 79 80 82 84 86 88 90 90 92 96 98 97 96 94 91 89 87 85 83 80 78 76 74 73 73 72 72 72 71 70 69 68 67 66 66 64 63 63 62 61 61 60 60 60 60 57 54 52 53 52 50 49 49 49 49 50 51 52 54 56 57 57 57 57 54 53 53 53 53 53 53 53 53 53 54 55 55 57
60 64 67 70 73 74 76 77 77 77 78 79 81 83 86 88 90 91 92 95 98 99 98 96 94 92 89 87 84 82 80 78 76 75 74 74 73 73 73 72 71 70 69 67 66 65 65 64 64 63 63 62 61 61 61 59 57 55 55 53 52 52 51 51 51 52 53 54 56 57 57 58 59 58 56 54 55 55 56 55 55 55 56 56 56 57 57 58
58 61 65 68 70 72 74 75 76 76 77 78 80 83 86 88 90 91 92 95 99 101 100 98 96 93 90 88 86 84 81 79 78 77 76 75 74 74 74 73 73 71 70 69 67 67 66 66 65 65 65 64 63 63 62 61 59 58 56 55 54 54 53 53 53 54 55 56 57 58 58 60 61 59 57 57 57 57 57 57 57 57 58 58 59 59 60 61
56 58 62 65 67 69 72 74 75 76 76 78 79 82 85 88 90 91 93 95 99 101 101 99 97 94 92 90 88 86 84 82 80 78 77 76 76 75 75 75 74 73 72 70 69 68 68 68 67 67 66 66 65 64 64 63 62 60 58 57 56 56 55 55 56 56 57 58 59 59 59 61 62 60 59 60 60 60 59 59 59 60 61 61 62 62 63 64
54 56 59 62 65 67 69 72 73 74 75 76 79 82 85 88 90 92 93 96 99 101 102 100 98 96 94 92 90 88 86 84 82 80 79 78 77 77 77 77 76 75 74 72 71 70 70 69 68 68 68 67 66 66 65 64 63 62 60 58 58 58 58 58 57 58 58 59 60 60 60 62 63 62 61 62 62 61 62 62 62 63 63 64 64 65 66 66
53 54 57 60 62 64 67 69 71 72 73 75 77 80 84 87 90 92 94 96 98 100 101 101 99 97 96 94 92 89 87 85 83 82 81 79 79 79 79 79 78 77 76 74 72 72 71 70 69 69 69 68 68 68 67 66 65 63 61 60 60 61 61 60 59 59 60 60 60 60 61 62 63 63 63 63 63 63 63 63 64 65 65 65 66 66 67 67
52 53 55 57 59 62 64 66 68 70 71 73 76 79 83 87 90 92 94 95 98 100 101 101 100 99 97 95 93 91 89 87 85 84 83 81 81 80 80 80 80 79 77 75 74 73 72 71 71 71 70 70 71 70 69 68 66 63 62 63 64 64 63 61 60 60 60 60 60 61 62 63 63 64 64 64 64 64 64 65 66 66 66 67 67 68 68 68
Wind_Direction
240 241 242 242 243 245 244 242 243 249 255 259 261 264 269 273 280 288 300 313 330 348 0 3 7 13 17 18 20 20 20 22 24 26 29 31 33 33 34 34 33 33 32 32 32 33 33 34 33 32 32 32 32 32 32 33 34 32 30 33 32 37 155 162 143 128 124 122 123 127 126 118 104 96 95 95 92 82 78 91 98 96 94 95 91 89 108 142
240 241 243 244 244 245 247 246 244 246 251 257 260 263 267 270 275 281 289 298 311 326 343 352 357 3 11 13 16 17 17 19 21 23 26 28 30 31 32 32 32 32 32 32 32 32 32 33 33 32 31 32 32 31 31 31 31 30 28 30 21 359 332 195 162 135 131 131 131 133 129 120 109 95 86 86 87 84 80 80 87 85 83 79 71 63 68 147
239 240 243 244 245 245 247 248 246 246 248 253 258 262 265 268 272 277 283 289 298 309 324 337 346 352 0 7 10 13 14 15 18 20 23 25 26 28 29 30 30 30 31 31 31 31 31 32 33 32 31 31 32 31 31 30 30 29 27 27 29 16 347 292 200 167 168 152 141 134 126 120 114 102 84 68 63 71 74 60 60 66 70 69 62 38 10 337
238 239 241 243 245 246 246 247 248 248 248 250 255 259 263 266 269 273 278 283 289 298 310 320 332 341 349 357 3 8 10 11 14 16 19 22 23 24 26 27 27 27 29 30 30 30 30 31 32 32 31 30 31 31 30 29 29 30 29 27 29 33 15 318 267 211 200 183 153 137 130 130 128 117 100 77 43 41 39 25 18 7 6 31 18 332 334 345
239 239 240 242 244 246 247 247 248 249 249 250 252 256 260 263 266 270 274 278 283 290 299 308 318 330 338 347 355 1 5 7 10 12 14 17 19 20 22 24 24 24 26 27 28 29 29 30 31 31 31 30 30 31 30 30 30 31 31 28 26 29 32 354 294 254 228 210 172 146 141 146 145 139 135 147 190 336 351 342 334 328 325 319 309 303 305 314
238 239 240 241 242 245 246 246 247 249 250 250 251 254 257 260 263 266 270 274 279 283 290 299 307 319 329 337 345 352 358 1 5 7 9 12 16 17 18 19 21 21 22 24 26 27 28 28 29 30 30 30 30 30 30 29 30 31 32 30 25 22 22 8 317 276 247 228 200 162 150 153 155 158 168 191 220 233 248 273 297 305 307 308 309 308 307 304
237 238 239 240 241 243 245 245 246 248 249 251 251 253 256 258 261 263 267 271 274 278 284 290 298 308 318 328 335 343 349 354 359 2 4 7 11 13 15 15 16 16 18 21 23 25 27 27 28 29 29 29 30 30 29 29 30 32 33 32 28 26 22 9 335 278 247 231 216 188 164 157 158 171 190 212 234 235 235 248 268 284 292 299 304 310 313 312
237 237 238 240 241 242 244 244 245 246 248 250 251 252 254 257 259 261 264 267 271 275 278 284 291 299 308 317 326 334 340 346 351 356 359 1 5 8 11 13 12 12 13 17 20 22 24 26 26 27 28 29 29 29 29 29 30 31 34 34 32 33 32 23 5 302 249 228 215 204 191 177 173 183 204 221 240 245 243 249 260 272 283 293 298 305 311 314
237 237 238 239 240 242 243 244 244 245 246 248 250 251 253 255 257 259 261 264 267 271 275 279 284 291 299 307 316 324 331 337 343 348 352 355 359 3 7 10 10 8 9 12 15 18 21 24 25 26 27 29 29 29 28 28 29 31 34 35 35 36 38 38 29 8 289 227 203 201 202 201 199 203 225 238 247 254 256 259 264 274 283 289 294 298 305 307
237 237 237 238 239 240 242 243 244 244 245 246 248 250 252 254 256 258 259 261 264 267 271 274 278 284 291 298 307 315 321 328 335 340 345 349 353 358 2 5 7 5 5 7 11 14 17 21 23 24 26 28 28 28 28 28 29 30 32 35 36 36 38 42 43 40 31 33 93 171 198 209 210 217 248 258 254 258 267 270 270 276 282 288 294 298 301 301
235 236 237 238 238 239 241 242 243 243 244 245 247 248 250 252 254 257 258 259 261 264 267 271 274 278 284 291 298 305 312 318 326 332 337 341 346 352 357 360 2 3 2 3 7 11 13 18 21 22 24 26 27 28 28 28 29 30 31 33 35 35 36 40 44 47 42 37 38 42 108 209 229 235 257 268 267 267 274 277 277 281 287 292 296 297 298 300
235 235 237 238 238 239 240 241 241 242 243 244 245 247 248 250 252 255 257 258 259 261 264 267 270 274 278 284 290 296 303 310 317 324 329 333 338 345 350 354 356 0 0 359 3 7 9 14 19 21 22 24 26 27 27 28 29 30 30 31 32 34 35 38 41 43 43 40 35 30 55 162 205 237 260 272 275 276 274 278 288 292 295 296 295 296 298 302
235 235 235 237 238 239 239 240 240 241 243 244 245 246 247 248 250 253 255 257 258 260 261 263 267 270 273 278 284 289 295 303 309 316 321 325 330 337 342 347 351 354 357 356 358 2 6 9 16 19 20 22 24 25 26 28 30 30 29 30 30 32 35 37 38 40 40 40 39 34 30 98 183 217 238 254 264 269 269 280 291 295 298 299 300 301 304 309
235 235 235 236 237 239 239 239 239 240 241 243 244 245 246 247 249 251 253 254 256 258 260 261 263 266 270 273 278 283 289 295 301 308 313 317 322 328 334 340 345 348 351 353 353 357 1 5 12 17 19 20 21 24 25 27 30 30 30 29 27 29 34 39 40 39 38 40 42 33 22 32 44 218 225 245 252 264 277 286 293 297 304 310 314 317 320 325
234 234 235 236 236 238 239 239 239 239 240 241 242 244 245 246 247 249 251 252 254 256 258 260 261 263 266 270 273 278 283 288 294 300 306 311 316 320 326 332 337 341 344 347 349 352 355 359 6 13 17 18 19 22 23 26 30 31 31 30 27 28 32 38 42 42 40 44 49 39 25 35 30 16 315 272 268 283 298 306 310 316 327 332 335 335 337 335
234 234 234 235 236 237 238 239 239 239 239 240 241 242 244 245 246 248 249 250 252 254 256 258 260 261 263 266 270 273 277 282 288 293 299 305 309 313 318 324 330 334 336 340 345 348 349 353 360 7 13 15 17 20 22 25 28 30 31 30 29 30 31 34 40 43 42 43 48 48 45 50 55 67 86 96 81 61 32 20 6 1 358 356 351 346 342 337
234 234 234 234 236 237 237 238 239 239 239 239 240 241 242 243 245 247 248 249 250 251 253 256 258 259 261 263 266 269 273 277 281 287 292 298 303 307 312 317 322 327 330 332 338 343 343 346 352 1 8 10 14 17 21 24 26 28 29 29 30 32 32 33 36 40 42 41 41 44 47 51 57 69 80 83 76 64 49 37 25 15 10 3 354 347 341 336
234 234 234 234 235 236 237 237 238 239 240 240 239 240 241 242 244 245 247 248 249 250 251 254 256 258 259 260 263 266 269 272 276 281 286 291 296 302 305 310 314 319 323 324 329 337 339 339 345 354 1 5 9 13 18 23 24 26 26 26 28 32 33 33 34 36 39 40 37 35 37 39 40 44 50 52 53 50 42 33 23 16 11 5 354 344 341 339
234 234 234 234 234 235 236 236 237 238 239 240 240 240 240 241 242 244 246 247 248 249 250 252 254 256 257 258 260 263 265 268 272 275 280 285 290 296 299 303 308 312 317 318 321 329 334 334 338 346 354 358 3 8 13 20 23 24 25 25 26 29 32 33 34 35 36 38 38 34 30 29 26 25 29 31 29 29 29 25 20 14 11 6 354 345 342 342
235 234 234 234 234 234 235 235 236 237 238 239 240 240 240 240 241 243 245 246 247 248 249 250 252 253 256 257 258 260 262 265 268 271 275 279 284 290 294 297 301 304 309 312 313 320 327 329 332 339 346 351 356 1 6 13 19 21 22 24 25 27 29 30 32 34 34 35 37 36 33 29 27 25 25 23 17 15 15 14 11 9 8 4 355 347 344 344
235 235 234 234 234 234 234 234 235 236 237 238 239 240 240 240 240 242 243 245 246 247 248 249 250 252 254 255 256 258 260 261 263 266 270 273 278 284 288 291 295 298 302 306 307 311 319 323 326 331 337 343 348 353 358 5 11 15 18 20 23 25 26 27 28 30 31 32 33 34 33 31 29 29 29 27 19 12 8 5 2 1 0 358 353 347 345 344
235 235 235 234 234 234 234 234 234 235 236 237 238 239 240 240 240 241 242 244 245 246 247 248 249 250 252 254 256 256 257 258 260 263 266 269 274 278 282 286 289 291 295 299 301 304 310 316 320 323 328 335 340 344 350 355 1 7 12 14 18 21 23 25 25 25 26 28 29 29 29 29 27 27 29 30 27 21 14 7 2 0 359 357 352 345 343 342
235 235 235 234 234 234 234 234 233 234 235 236 238 239 239 240 240 241 242 242 244 245 246 247 248 249 251 252 254 255 256 257 258 260 262 265 269 273 277 281 283 285 289 292 295 298 302 307 313 316 319 324 330 336 341 346 350 357 5 8 11 15 17 20 22 22 21 21 23 22 23 24 23 23 25 27 27 25 21 14 6 2 1 1 357 350 344 341
235 235 235 235 234 234 234 234 233 234 235 235 236 238 239 240 240 241 242 242 243 244 245 246 247 248 249 251 252 254 255 255 256 257 260 262 265 268 272 276 278 280 283 286 289 293 296 298 304 308 311 314 320 326 331 337 342 346 354 0 4 8 11 13 16 18 18 17 17 16 15 16 16 17 19 21 23 22 21 18 11 4 360 0 1 357 350 347
235 235 235 235 234 234 234 234 234 233 234 234 235 236 238 239 239 240 241 242 242 243 244 245 246 247 248 249 250 252 253 254 255 256 257 259 261 263 267 271 274 275 277 280 284 287 289 291 296 301 304 306 309 314 320 328 334 337 343 350 355 359 4 6 8 11 14 14 14 13 9 8 8 10 12 15 17 18 18 17 12 5 359 356 358 358 354 351
235 235 235 235 235 235 234 234 234 233 233 234 234 235 236 238 239 239 240 241 242 242 243 244 245 246 247 248 249 251 252 253 253 254 255 256 258 260 263 266 270 271 271 274 278 281 283 286 288 293 298 300 301 304 309 316 323 329 334 340 345 349 354 357 359 3 7 9 10 10 7 3 0 360 3 7 9 11 12 12 11 5 359 354 353 355 353 350
235 234 235 235 235 235 235 234 234 233 233 233 233 234 235 236 237 239 239 240 241 242 243 243 244 245 246 247 248 249 251 252 252 253 253 254 256 258 260 262 265 266 267 269 271 275 277 279 282 286 291 294 297 299 302 307 313 319 325 331 336 340 345 349 351 353 358 1 3 5 6 4 358 353 352 355 358 2 4 5 6 3 358 353 349 350 350 348
236 235 234 234 234 235 235 234 234 233 233 232 232 233 234 235 236 237 238 239 240 241 242 243 244 244 245 246 247 248 249 250 251 252 252 252 254 255 257 259 261 263 264 265 266 269 272 274 277 280 284 288 293 296 298 301 306 311 317 322 327 330 335 340 344 345 349 352 354 357 359 1 0 354 348 346 347 350 353 355 357 358 355 352 347 345 347 346
237 237 235 234 234 234 235 234 234 233 233 232 232 232 233 234 234 236 237 239 240 241 242 242 243 244 245 245 246 247 247 248 250 251 251 251 251 253 255 256 258 260 262 261 262 264 267 270 272 275 278 283 288 292 295 298 301 305 309 313 318 322 326 330 335 338 341 344 346 348 350 353 357 355 350 347 342 341 343 344 346 348 348 348 345 342 342 343
237 237 236 234 233 233 234 234 234 233 233 232 232 232 232 233 234 235 236 237 239 240 241 242 242 243 244 244 245 245 246 247 249 250 250 250 250 252 253 254 256 258 259 259 259 261 263 266 268 270 273 277 282 287 291 294 297 301 304 307 311 315 318 322 326 329 333 336 338 341 341 343 350 351 350 349 345 341 340 339 337 338 339 341 341 339 338 339
238 237 237 236 234 233 233 234 234 233 232 232 232 232 232 232 233 234 235 236 238 239 240 241 242 243 243 244 244 244 245 245 247 248 249 249 249 250 251 252 254 256 257 256 256 258 261 264 265 267 270 273 277 282 286 290 294 298 301 303 305 308 311 314 318 321 324 328 331 333 334 335 341 345 346 346 345 342 340 339 336 334 333 334 336 335 334 335
238 238 237 237 235 234 233 233 234 233 233 232 231 231 231 231 232 233 234 235 236 238 239 240 241 242 242 243 243 244 244 244 245 246 248 249 249 250 251 252 253 254 254 254 254 256 259 261 263 265 267 270 274 278 282 286 290 295 298 300 303 305 306 308 311 314 317 320 323 326 328 329 333 338 340 340 340 340 339 339 338 335 332 332 332 333 332 332
238 238 237 237 236 235 233 233 233 233 233 232 231 231 231 231 231 232 233 234 235 237 238 239 240 241 242 243 243 243 244 244 244 246 247 248 249 250 251 252 251 251 252 253 254 255 255 257 260 263 265 267 270 274 278 282 286 291 294 298 301 303 303 305 307 310 312 314 317 320 322 324 326 330 333 334 334 335 336 336 337 336 335 333 333 333 332 330
238 238 238 237 236 236 234 233 233 232 233 232 231 231 231 230 230 231 232 233 234 236 237 238 239 241 242 243 243 243 244 244 244 245 246 247 249 250 251 250 250 250 251 252 253 253 253 255 258 260 262 264 267 270 273 277 281 286 289 293 296 298 299 302 304 305 307 309 311 314 316 318 320 323 326 327 328 330 332 333 333 334 334 334 335 334 332 330
238 238 238 237 236 236 235 234 233 232 232 232 232 231 230 230 230 230 231 231 233 234 236 237 238 240 241 242 243 243 243 244 244 245 245 246 248 249 250 250 249 249 250 251 252 252 252 254 257 258 260 262 264 267 270 273 277 280 284 287 289 292 295 298 300 301 303 305 306 308 311 313 315 318 321 322 323 325 328 330 331 331 332 333 334 334 332 330
237 238 237 237 236 236 235 234 233 232 231 232 232 231 230 230 230 230 230 231 232 233 235 236 237 239 240 241 241 242 243 243 244 244 245 245 246 248 249 249 249 249 249 249 250 252 252 254 255 257 258 260 262 265 268 271 274 276 279 282 284 287 290 295 297 299 300 301 302 304 307 308 311 315 317 318 319 321 324 326 328 329 330 331 333 333 332 330
237 237 237 236 236 235 235 234 233 232 231 231 231 231 231 230 230 230 230 230 231 232 234 235 236 237 238 240 240 241 242 242 243 243 244 244 245 246 248 249 249 248 248 249 250 251 253 253 254 255 257 259 261 263 266 268 271 274 277 279 281 284 287 291 294 296 298 299 300 302 303 305 308 312 314 315 316 318 321 323 325 326 327 328 330 330 330 329
236 236 236 236 235 235 235 234 233 232 231 231 230 230 231 230 230 230 230 230 230 231 233 234 235 237 238 239 239 240 241 241 241 242 243 243 244 245 247 248 248 248 248 249 250 251 252 252 253 254 256 258 261 263 265 267 270 273 275 277 279 282 284 288 291 293 295 297 298 299 300 302 306 309 312 312 314 317 319 321 322 323 324 325 327 327 328 328
235 235 235 235 235 234 234 234 233 232 231 230 230 230 230 230 230 229 229 229 230 230 232 233 234 236 237 238 238 239 240 240 241 241 242 242 243 244 245 246 247 248 249 250 250 251 252 252 252 254 256 258 260 263 264 267 269 271 273 275 278 280 282 284 287 289 291 294 295 296 297 299 302 306 308 309 312 315 317 318 320 321 322 323 324 325 326 326
234 234 234 234 234 234 234 234 233 232 231 230 229 229 230 230 230 229 229 229 229 230 231 232 233 235 236 237 238 239 239 240 240 241 241 242 242 244 245 245 247 248 249 249 250 250 251 252 252 253 255 257 259 262 265 266 268 270 271 274 276 279 281 282 284 286 288 291 293 294 295 296 299 302 304 305 309 312 314 316 318 319 320 321 322 323 324 324
233 233 233 233 233 233 233 233 233 232 230 230 229 229 229 229 229 229 228 228 229 229 230 231 232 234 235 236 237 238 239 239 240 240 241 241 242 243 244 245 246 248 248 249 250 250 251 251 252 253 254 256 259 262 264 265 267 269 271 273 275 278 280 281 282 284 286 288 290 292 293 294 296 298 300 302 306 309 311 313 315 316 318 319 320 321 322 322
233 232 232 232 232 233 233 232 232 231 230 229 229 228 229 229 229 229 228 228 228 228 229 230 232 233 234 235 236 237 238 239 239 240 241 241 242 243 244 244 245 246 247 248 249 250 250 251 252 253 254 256 258 260 262 265 267 269 270 272 275 277 279 280 281 282 284 286 288 290 291 293 295 296 297 300 303 306 308 311 312 313 315 317 318 319 319 320
233 232 232 231 231 232 232 232 231 231 230 229 229 229 228 228 228 228 228 228 228 228 229 230 231 232 233 234 235 236 237 238 239 240 240 240 241 242 243 244 245 246 247 248 249 249 250 251 252 253 254 255 257 260 262 264 265 267 270 272 274 275 277 279 281 282 283 284 287 288 289 291 293 294 296 299 302 304 307 308 310 311 313 315 316 317 317 318
233 232 231 231 231 231 231 231 231 230 229 229 228 228 228 228 228 228 228 228 228 228 228 229 230 231 232 233 234 235 236 237 238 239 240 240 241 242 242 243 244 245 246 247 248 249 250 251 252 253 254 255 257 259 261 262 264 268 271 272 272 274 277 279 280 281 282 284 285 286 287 290 292 293 295 298 300 303 305 306 308 310 311 313 314 314 315 316
234 233 231 230 230 230 230 230 230 230 229 228 228 228 228 228 228 227 227 227 227 227 228 229 230 231 232 233 234 235 235 236 238 239 239 240 240 241 242 243 244 244 245 246 247 249 250 251 252 253 254 255 256 257 259 261 264 267 269 270 272 274 276 278 279 280 281 283 284 284 286 289 291 292 294 298 300 302 303 304 306 308 309 310 311 313 314 315
234 233 231 230 229 229 229 229 229 229 229 228 228 227 227 227 227 227 227 227 227 227 227 228 229 230 231 232 233 234 235 236 237 238 239 239 240 241 242 243 243 244 245 245 247 249 250 251 252 253 253 254 255 256 259 261 263 265 267 269 271 273 275 277 278 279 280 281 282 283 286 288 289 291 294 298 299 300 301 303 305 306 307 308 310 311 312 313
234 233 232 230 229 229 229 229 229 229 229 228 227 227 227 227 227 227 226 226 226 226 226 227 228 229 230 231 232 233 234 235 236 237 238 239 240 241 242 243 243 244 244 245 247 248 249 250 251 252 253 254 255 256 258 260 262 263 266 268 271 273 275 277 277 278 279 280 281 283 285 287 287 290 294 296 297 298 300 302 304 305 305 307 308 309 310 312
233 233 232 230 228 228 228 228 228 228 228 227 227 227 227 227 226 226 226 226 226 225 226 227 228 229 230 231 232 233 234 235 236 236 237 238 239 240 241 242 243 244 244 245 246 247 248 250 251 252 253 254 255 256 257 259 261 263 265 267 270 272 275 276 276 277 278 279 280 282 285 285 287 290 294 295 295 297 299 301 302 303 304 305 307 308 310 311
233 232 232 230 228 228 228 228 228 228 227 227 226 226 226 226 226 226 225 225 225 225 226 226 227 228 230 231 232 232 233 234 235 236 237 238 239 240 241 242 243 244 244 244 245 246 248 249 250 251 253 253 255 256 257 259 261 263 265 267 269 272 274 275 275 276 277 279 281 283 284 285 287 291 293 293 295 297 298 299 301 302 303 305 306 308 309 311
232 231 231 230 229 228 228 228 228 228 227 227 226 226 226 226 226 226 225 224 224 225 225 226 227 228 229 230 231 232 233 234 235 236 237 238 238 240 241 242 243 243 244 244 245 246 247 248 250 251 253 254 255 256 257 259 261 263 265 267 270 272 273 274 275 276 277 279 281 283 284 285 288 291 292 293 295 296 297 298 300 301 303 304 305 307 308 309
232 231 230 230 229 228 228 228 228 228 227 227 226 226 226 225 226 225 225 224 224 224 224 225 226 227 228 229 230 231 232 233 234 235 236 237 238 239 240 241 242 243 243 244 244 245 246 248 250 251 252 254 255 256 258 259 261 264 266 269 270 271 272 274 275 276 277 279 281 282 283 285 287 289 290 291 293 294 295 297 298 299 301 302 304 305 306 307
232 230 230 230 229 229 228 228 228 228 227 227 226 226 225 225 225 225 224 224 223 223 224 225 226 227 228 229 230 231 232 233 234 235 236 237 238 239 240 241 242 243 244 244 245 246 247 248 249 251 253 254 256 257 258 260 262 265 267 269 269 270 272 274 275 276 277 279 280 281 282 284 285 287 288 289 290 291 292 294 295 297 299 300 302 303 304 305
Height
11018 11019 11019 11020 11021 11022 11024 11025 11026 11026 11027 11027 11028 11028 11028 11029 11029 11030 11030 11030 11030 11030 11030 11030 11029 11028 11027 11027 11026 11025 11023 11022 11021 11019 11017 11016 11015 11014 11012 11010 11008 11006 11004 11002 11000 10998 10996 10994 10992 10989 10987 10984 10982 10980 10979 10977 10976 10975 10974 10974 10975 10975 10975 10976 10976 10976 10976 10975 10974 10974 10974 10974 10974 10974 10974 10975 10975 10976 10976 10977 10977 10977 10978 10978 10978 10978 10979 10979
11016 11017 11018 11018 11019 11020 11022 11023 11024 11025 11025 11026 11026 11027 11027 11028 11028 11029 11029 11029 11030 11030 11030 11030 11029 11029 11028 11027 11026 11025 11024 11023 11021 11020 11018 11017 11016 11015 11014 11012 11010 11008 11006 11004 11002 11000 10998 10996 10994 10992 10989 10986 10984 10981 10979 10978 10976 10975 10974 10974 10974 10974 10975 10975 10975 10975 10976 10975 10974 10973 10974 10974 10973 10973 10974 10974 10975 10977 10977 10977 10977 10977 10978 10978 10978 10978 10978 10978
11013 11014 11015 11016 11017 11018 11020 11021 11022 11023 11024 11024 11025 11025 11026 11027 11027 11028 11028 11028 11029 11029 11030 11030 11029 11029 11028 11027 11026 11025 11024 11023 11022 11021 11019 11018 11017 11016 11014 11013 11011 11009 11008 11006 11004 11002 11000 10998 10996 10994 10991 10989 10986 10983 10981 10979 10977 10975 10975 10974 10974 10974 10974 10974 10974 10975 10975 10974 10973 10973 10973 10973 10973 10973 10973 10974 10975 10976 10978 10977 10977 10977 10978 10978 10978 10978 10978 10978
11010 11012 11013 11014 11015 11016 11017 11019 11020 11021 11022 11023 11023 11024 11024 11025 11026 11026 11027 11027 11028 11028 11029 11029 11029 11028 11027 11027 11026 11025 11024 11023 11022 11021 11020 11019 11017 11016 11015 11014 11012 11011 11009 11008 11006 11004 11002 11000 10998 10996 10993 10991 10988 10985 10982 10980 10978 10976 10974 10973 10973 10973 10973 10973 10973 10974 10974 10974 10973 10973 10973 10973 10973 10973 10973 10974 10975 10976 10977 10977 10976 10977 10977 10977 10977 10977 10977 10977
11007 11008 11010 11011 11012 11013 11015 11016 11018 11019 11020 11021 11022 11022 11023 11024 11024 11025 11025 11026 11026 11027 11027 11028 11028 11028 11027 11026 11026 11025 11024 11023 11022 11021 11020 11019 11018 11017 11016 11014 11013 11012 11010 11009 11007 11006 11004 11002 11000 10998 10995 10992 10989 10986 10984 10982 10979 10977 10974 10972 10972 10971 10972 10972 10972 10972 10973 10974 10973 10973 10973 10973 10973 10974 10974 10975 10976 10976 10976 10976 10976 10976 10976 10976 10976 10976 10977 10977
11003 11005 11006 11008 11009 11010 11012 11014 11015 11016 11018 11019 11020 11021 11021 11022 11023 11023 11024 11024 11025 11025 11026 11026 11027 11027 11026 11026 11025 11025 11024 11023 11022 11021 11021 11020 11019 11017 11016 11015 11014 11012 11011 11010 11009 11007 11005 11003 11001 10999 10997 10994 10991 10988 10986 10983 10980 10978 10975 10973 10971 10970 10970 10970 10971 10971 10972 10972 10973 10973 10973 10973 10974 10974 10974 10975 10976 10976 10976 10976 10976 10975 10975 10975 10975 10975 10976 10976
11000 11002 11003 11004 11005 11007 11008 11010 11012 11014 11015 11016 11018 11019 11019 11020 11021 11022 11022 11023 11023 11024 11025 11025 11025 11026 11025 11025 11024 11024 11024 11023 11022 11022 11021 11020 11019 11018 11017 11015 11014 11013 11012 11011 11009 11008 11007 11005 11003 11001 10998 10996 10993 10990 10987 10984 10982 10979 10976 10974 10972 10971 10970 10971 10971 10970 10970 10971 10972 10972 10973 10973 10974 10974 10974 10975 10975 10976 10976 10976 10976 10975 10975 10975 10975 10975 10975 10975
10996 10998 10999 11001 11002 11003 11005 11007 11009 11011 11013 11014 11015 11016 11017 11018 11019 11020 11021 11021 11022 11022 11023 11024 11024 11024 11024 11024 11024 11023 11023 11023 11022 11021 11021 11020 11019 11018 11017 11016 11014 11013 11012 11011 11010 11009 11007 11006 11004 11002 11000 10997 10994 10991 10989 10986 10983 10980 10978 10975 10974 10973 10972 10972 10971 10970 10970 10970 10971 10971 10972 10973 10973 10974 10974 10975 10975 10975 10976 10976 10976 10975 10975 10975 10975 10974 10974 10974
10992 10994 10995 10997 10998 10999 11001 11003 11006 11008 11010 11011 11012 11014 11015 11016 11017 11018 11019 11019 11020 11020 11021 11022 11023 11023 11023 11023 11023 11023 11022 11022 11022 11021 11021 11020 11020 11019 11017 11016 11015 11013 11012 11011 11010 11009 11008 11007 11005 11003 11001 10998 10996 10993 10990 10987 10985 10982 10979 10977 10975 10975 10974 10973 10972 10971 10970 10970 10970 10971 10972 10973 10973 10974 10974 10974 10975 10975 10975 10975 10975 10975 10975 10975 10975 10974 10974 10974
10988 10990 10991 10993 10994 10995 10997 10999 11002 11004 11006 11007 11009 11011 11012 11013 11014 11015 11017 11017 11018 11019 11019 11020 11021 11021 11022 11022 11022 11022 11022 11021 11021 11021 11020 11020 11019 11019 11018 11016 11015 11014 11012 11011 11010 11009 11008 11007 11005 11004 11002 11000 10997 10995 10992 10989 10986 10983 10981 10979 10977 10976 10976 10974 10973 10972 10971 10970 10971 10971 10972 10972 10973 10974 10974 10974 10974 10975 10975 10975 10975 10975 10975 10975 10974 10974 10974 10973
10983 10985 10987 10988 10990 10991 10993 10995 10998 11001 11003 11004 11006 11007 11009 11010 11011 11012 11014 11015 11016 11017 11017 11018 11019 11020 11020 11020 11021 11021 11021 11020 11020 11020 11020 11019 11019 11019 11018 11017 11016 11014 11013 11011 11010 11009 11008 11007 11005 11004 11002 11001 10998 10996 10993 10990 10987 10984 10982 10980 10979 10978 10977 10975 10973 10972 10971 10971 10971 10972 10972 10973 10973 10974 10974 10974 10974 10975 10975 10975 10975 10974 10974 10974 10974 10973 10973 10973
10978 10981 10982 10984 10986 10987 10989 10991 10994 10997 10999 11000 11002 11004 11005 11007 11008 11009 11011 11012 11013 11014 11015 11016 11017 11018 11018 11019 11019 11019 11020 11019 11019 11019 11019 11019 11018 11018 11018 11017 11016 11014 11013 11011 11010 11009 11008 11007 11006 11004 11003 11002 11000 10998 10995 10992 10988 10986 10983 10981 10980 10980 10978 10976 10973 10972 10972 10972 10972 10973 10973 10973 10973 10974 10974 10974 10974 10975 10975 10975 10974 10974 10974 10974 10973 10973 10972 10971
10973 10976 10978 10979 10981 10983 10984 10987 10990 10992 10994 10996 10999 11000 11002 11004 11005 11006 11008 11009 11010 11012 11013 11014 11015 11016 11017 11017 11018 11018 11018 11018 11018 11018 11018 11018 11018 11018 11017 11016 11015 11014 11013 11012 11010 11009 11008 11007 11006 11005 11004 11003 11001 10999 10997 10994 10990 10987 10985 10983 10982 10981 10979 10976 10974 10973 10973 10973 10974 10974 10974 10974 10974 10974 10974 10974 10974 10975 10975 10975 10974 10974 10974 10973 10973 10972 10971 10970
10967 10970 10973 10974 10976 10978 10980 10982 10985 10988 10990 10992 10994 10996 10998 11000 11001 11002 11004 11006 11008 11009 11010 11012 11013 11014 11014 11015 11016 11016 11017 11017 11017 11017 11017 11017 11017 11017 11017 11016 11015 11014 11013 11012 11010 11009 11008 11007 11006 11005 11004 11003 11002 11000 10998 10995 10992 10989 10986 10984 10984 10982 10980 10977 10975 10975 10975 10974 10974 10975 10975 10975 10975 10975 10975 10975 10975 10975 10975 10975 10974 10974 10973 10973 10972 10971 10970 10969
10961 10964 10967 10969 10971 10973 10975 10978 10981 10983 10985 10988 10990 10992 10994 10996 10998 10999 11001 11003 11004 11006 11007 11009 11010 11011 11012 11013 11014 11014 11015 11015 11016 11016 11016 11016 11015 11015 11015 11015 11015 11014 11013 11012 11011 11009 11008 11007 11007 11006 11005 11004 11003 11001 10999 10996 10993 10991 10988 10987 10986 10984 10981 10979 10978 10977 10977 10976 10976 10975 10975 10975 10975 10975 10975 10975 10975 10975 10975 10974 10974 10973 10973 10972 10971 10970 10969 10968
10955 10958 10961 10964 10966 10968 10970 10973 10976 10978 10980 10983 10985 10988 10990 10992 10994 10995 10997 10999 11001 11002 11004 11006 11007 11008 11010 11011 11011 11012 11013 11013 11014 11014 11014 11014 11014 11014 11014 11014 11014 11013 11012 11011 11010 11009 11008 11007 11006 11006 11005 11005 11003 11002 11000 10997 10994 10992 10991 10990 10989 10986 10984 10982 10980 10979 10979 10978 10977 10977 10977 10976 10976 10976 10976 10975 10975 10975 10974 10974 10973 10973 10972 10971 10970 10969 10968 10968
10948 10951 10955 10957 10960 10963 10965 10968 10971 10973 10975 10978 10980 10983 10985 10988 10990 10991 10993 10995 10997 10999 11001 11002 11004 11005 11007 11008 11009 11010 11011 11011 11012 11012 11012 11013 11013 11013 11013 11013 11013 11012 11011 11011 11010 11009 11008 11007 11006 11005 11005 11004 11003 11002 11000 10998 10995 10994 10992 10992 10991 10988 10986 10984 10982 10981 10980 10979 10979 10978 10978 10978 10978 10977 10977 10976 10975 10974 10974 10973 10973 10972 10971 10971 10970 10969 10968 10967
10942 10945 10948 10951 10954 10956 10959 10963 10965 10968 10970 10973 10975 10978 10980 10983 10985 10987 10988 10991 10993 10995 10997 10999 11000 11002 11004 11005 11006 11007 11008 11009 11010 11010 11011 11011 11011 11011 11011 11011 11011 11011 11010 11010 11009 11008 11007 11006 11005 11004 11004 11003 11003 11002 11001 10999 10997 10995 10994 10993 10992 10990 10988 10986 10984 10982 10981 10980 10980 10979 10979 10979 10979 10978 10977 10976 10975 10974 10973 10973 10972 10972 10971 10970 10969 10968 10967 10966
10936 10939 10942 10945 10947 10950 10953 10957 10960 10962 10965 10967 10970 10973 10975 10978 10980 10982 10984 10987 10989 10991 10993 10995 10997 10999 11000 11002 11003 11005 11006 11007 11007 11008 11009 11009 11009 11010 11010 11009 11010 11010 11009 11008 11008 11007 11006 11005 11004 11002 11002 11002 11001 11001 11000 10999 10998 10997 10995 10994 10993 10991 10989 10988 10986 10984 10983 10982 10981 10980 10979 10979 10979 10978 10977 10975 10974 10973 10973 10972 10972 10971 10971 10970 10969 10968 10967 10966
10929 10932 10935 10938 10941 10944 10947 10951 10954 10956 10959 10962 10964 10967 10970 10973 10976 10978 10980 10982 10985 10987 10989 10991 10993 10995 10997 10999 11000 11001 11003 11004 11005 11005 11006 11007 11007 11008 11008 11008 11008 11008 11008 11007 11006 11006 11005 11004 11003 11001 11000 11000 11000 11000 10999 10999 10998 10998 10997 10996 10994 10992 10990 10989 10987 10986 10985 10983 10982 10981 10980 10979 10979 10978 10976 10974 10973 10972 10971 10971 10970 10970 10970 10969 10968 10967 10967 10966
10922 10925 10929 10932 10934 10937 10940 10944 10948 10950 10953 10956 10959 10962 10965 10968 10971 10973 10975 10978 10980 10983 10985 10987 10989 10991 10993 10994 10996 10998 11000 11001 11002 11003 11004 11004 11005 11006 11006 11006 11006 11007 11006 11006 11005 11005 11004 11003 11002 11001 11000 10999 10998 10998 10998 10998 10998 10998 10997 10996 10994 10992 10991 10989 10988 10987 10986 10984 10983 10981 10980 10979 10978 10977 10975 10974 10973 10971 10970 10969 10968 10968 10968 10968 10967 10966 10965 10964
10914 10918 10921 10925 10928 10931 10934 10938 10941 10944 10947 10950 10953 10956 10960 10963 10966 10968 10970 10973 10975 10978 10980 10983 10985 10987 10989 10991 10993 10994 10996 10998 10999 11000 11001 11002 11003 11003 11004 11004 11004 11005 11005 11004 11003 11003 11003 11002 11001 11000 10999 10998 10997 10997 10996 10997 10997 10997 10996 10995 10994 10992 10991 10990 10988 10987 10986 10984 10983 10981 10980 10979 10978 10977 10975 10974 10972 10971 10969 10967 10967 10966 10966 10966 10965 10964 10963 10962
10907 10910 10914 10918 10921 10924 10927 10931 10935 10937 10940 10944 10947 10951 10954 10958 10960 10963 10965 10967 10970 10973 10975 10978 10980 10982 10985 10987 10988 10990 10992 10994 10996 10997 10998 10999 11000 11001 11001 11002 11002 11003 11003 11002 11001 11001 11001 11000 11000 10999 10999 10998 10997 10996 10995 10995 10995 10995 10995 10994 10993 10992 10991 10989 10988 10987 10985 10984 10982 10981 10979 10978 10978 10977 10976 10974 10973 10971 10969 10967 10966 10965 10964 10964 10964 10963 10962 10961
10900 10903 10906 10910 10914 10917 10920 10924 10928 10931 10934 10938 10942 10945 10949 10952 10955 10957 10959 10962 10965 10968 10970 10973 10975 10978 10980 10982 10984 10986 10988 10990 10992 10994 10995 10996 10997 10998 10999 10999 11000 11000 11000 11000 10999 10999 10999 10999 10998 10998 10997 10997 10996 10995 10994 10994 10993 10993 10993 10993 10992 10991 10990 10989 10988 10987 10985 10983 10982 10980 10979 10978 10977 10976 10975 10974 10972 10971 10969 10968 10966 10964 10963 10962 10962 10962 10960 10959
10892 10895 10899 10903 10906 10909 10913 10917 10921 10924 10928 10932 10935 10939 10943 10946 10949 10952 10954 10957 10959 10962 10965 10967 10970 10973 10975 10977 10979 10981 10984 10986 10989 10990 10991 10993 10994 10995 10996 10996 10997 10998 10998 10998 10997 10997 10997 10997 10997 10996 10996 10995 10995 10995 10994 10993 10992 10991 10991 10991 10990 10990 10989 10988 10987 10986 10985 10983 10982 10980 10979 10977 10976 10975 10974 10973 10972 10970 10969 10968 10966 10965 10963 10962 10961 10960 10959 10958
10884 10887 10891 10895 10899 10902 10905 10909 10913 10917 10922 10925 10929 10933 10936 10940 10943 10946 10948 10950 10953 10956 10959 10961 10964 10967 10970 10972 10975 10977 10979 10983 10985 10986 10988 10989 10990 10991 10992 10993 10995 10995 10996 10996 10995 10995 10995 10995 10994 10994 10994 10994 10993 10993 10993 10992 10991 10990 10989 10989 10988 10988 10988 10987 10986 10986 10985 10983 10982 10980 10979 10977 10976 10974 10973 10972 10971 10970 10969 10968 10967 10965 10964 10962 10960 10959 10958 10957
10876 10879 10883 10887 10891 10895 10898 10902 10906 10910 10914 10918 10922 10926 10929 10933 10937 10939 10942 10944 10947 10951 10953 10955 10959 10962 10965 10967 10969 10972 10975 10978 10980 10982 10984 10985 10987 10988 10989 10990 10992 10992 10993 10993 10993 10993 10993 10993 10992 10992 10992 10991 10991 10991 10991 10990 10990 10989 10988 10987 10987 10986 10986 10986 10985 10984 10984 10983 10982 10980 10979 10977 10975 10974 10972 10971 10970 10969 10968 10967 10966 10965 10964 10962 10960 10958 10957 10956
10867 10871 10875 10879 10883 10887 10889 10894 10898 10902 10907 10911 10915 10919 10922 10926 10930 10932 10935 10937 10942 10945 10947 10950 10953 10956 10959 10962 10964 10968 10971 10973 10975 10978 10980 10981 10983 10984 10985 10987 10988 10989 10990 10990 10990 10991 10991 10991 10990 10990 10989 10989 10988 10988 10988 10988 10987 10987 10986 10986 10985 10985 10984 10984 10984 10983 10982 10982 10981 10980 10979 10977 10976 10974 10972 10970 10969 10968 10967 10966 10965 10964 10963 10961 10959 10957 10956 10955
10858 10862 10867 10871 10875 10878 10882 10886 10891 10894 10899 10904 10908 10911 10915 10919 10922 10925 10928 10932 10937 10939 10940 10944 10947 10950 10954 10956 10959 10962 10965 10968 10971 10973 10975 10977 10979 10980 10981 10983 10984 10986 10987 10987 10987 10988 10988 10988 10988 10988 10987 10986 10986 10985 10985 10985 10985 10984 10984 10983 10983 10983 10982 10982 10982 10981 10980 10980 10979 10979 10978 10977 10976 10974 10972 10970 10968 10966 10965 10965 10964 10963 10962 10961 10959 10957 10955 10954
10850 10853 10858 10862 10866 10870 10874 10878 10882 10886 10891 10896 10900 10903 10908 10911 10915 10918 10922 10927 10931 10932 10934 10938 10941 10944 10948 10950 10953 10956 10960 10963 10966 10968 10971 10973 10974 10975 10977 10978 10980 10982 10984 10984 10983 10984 10985 10985 10985 10985 10984 10984 10983 10983 10982 10982 10982 10982 10981 10981 10980 10980 10979 10979 10979 10978 10978 10978 10978 10977 10976 10976 10975 10973 10971 10970 10968 10966 10964 10963 10962 10962 10961 10960 10958 10956 10954 10952
10840 10844 10848 10853 10858 10862 10866 10870 10874 10878 10883 10888 10891 10896 10900 10904 10908 10912 10917 10922 10924 10925 10928 10931 10935 10938 10942 10944 10947 10951 10955 10958 10960 10963 10966 10968 10970 10971 10972 10974 10976 10978 10979 10979 10979 10980 10981 10982 10982 10982 10982 10981 10980 10980 10979 10979 10979 10979 10979 10978 10977 10977 10976 10976 10975 10975 10976 10976 10976 10975 10974 10973 10973 10972 10971 10969 10967 10965 10963 10962 10961 10960 10959 10958 10957 10955 10953 10951
10831 10834 10839 10844 10849 10854 10858 10862 10865 10870 10875 10879 10883 10887 10892 10896 10901 10906 10911 10913 10914 10917 10921 10925 10929 10932 10935 10937 10941 10946 10949 10952 10955 10958 10960 10963 10965 10966 10967 10969 10972 10974 10974 10975 10975 10976 10977 10977 10978 10979 10978 10978 10977 10977 10976 10976 10975 10975 10975 10975 10974 10974 10973 10972 10972 10972 10972 10972 10973 10973 10972 10971 10971 10970 10969 10968 10966 10965 10963 10961 10960 10959 10958 10956 10955 10954 10952 10950
10821 10825 10829 10835 10840 10844 10849 10852 10856 10861 10865 10869 10874 10879 10883 10889 10895 10899 10901 10903 10907 10911 10916 10920 10923 10926 10928 10931 10936 10940 10943 10946 10950 10952 10955 10958 10960 10962 10963 10965 10967 10968 10969 10970 10971 10972 10973 10973 10974 10975 10975 10975 10974 10974 10973 10973 10972 10972 10972 10971 10971 10970 10969 10968 10968 10967 10967 10967 10968 10968 10968 10968 10968 10968 10967 10966 10965 10964 10962 10960 10958 10957 10956 10955 10953 10952 10950 10948
10811 10814 10819 10825 10830 10835 10839 10843 10846 10852 10856 10860 10865 10870 10876 10883 10887 10889 10890 10895 10901 10905 10908 10913 10916 10919 10922 10926 10930 10934 10937 10941 10944 10946 10949 10953 10955 10957 10958 10959 10961 10962 10963 10965 10966 10967 10968 10968 10970 10971 10971 10971 10971 10971 10971 10970 10970 10969 10969 10968 10968 10967 10966 10966 10965 10964 10963 10963 10963 10964 10964 10964 10964 10965 10965 10964 10963 10962 10960 10958 10956 10955 10954 10952 10951 10949 10948 10946
10800 10804 10809 10815 10820 10825 10829 10833 10838 10843 10847 10851 10856 10863 10869 10874 10875 10876 10881 10889 10894 10897 10901 10906 10909 10912 10916 10920 10924 10928 10931 10935 10938 10940 10944 10948 10950 10952 10952 10953 10955 10957 10958 10959 10961 10962 10962 10964 10965 10967 10967 10967 10967 10968 10967 10967 10967 10967 10967 10966 10966 10965 10964 10964 10963 10961 10960 10959 10959 10959 10960 10960 10960 10961 10961 10960 10960 10959 10958 10957 10954 10952 10950 10949 10948 10947 10945 10943
10790 10793 10799 10805 10810 10814 10818 10823 10828 10834 10838 10842 10848 10855 10860 10862 10864 10868 10876 10882 10886 10890 10894 10898 10901 10905 10909 10914 10918 10921 10925 10929 10932 10935 10939 10942 10944 10946 10947 10947 10949 10951 10952 10954 10955 10956 10957 10959 10961 10962 10963 10962 10963 10963 10964 10964 10964 10964 10964 10964 10963 10962 10961 10961 10960 10959 10958 10956 10955 10955 10955 10955 10956 10956 10956 10956 10955 10955 10955 10954 10952 10950 10948 10946 10945 10943 10942 10940
10779 10782 10788 10795 10800 10804 10808 10812 10818 10825 10829 10833 10840 10847 10849 10851 10856 10862 10869 10874 10878 10882 10886 10889 10893 10898 10903 10907 10911 10915 10919 10922 10925 10928 10932 10935 10937 10940 10941 10941 10943 10944 10946 10948 10950 10951 10952 10955 10956 10956 10957 10958 10958 10959 10959 10960 10960 10960 10960 10960 10960 10959 10958 10957 10957 10955 10954 10953 10951 10951 10951 10950 10950 10951 10951 10950 10950 10950 10950 10950 10948 10947 10945 10943 10942 10940 10939 10937
10768 10772 10778 10784 10789 10793 10797 10802 10809 10815 10820 10826 10833 10837 10838 10842 10848 10854 10860 10865 10869 10874 10878 10881 10886 10891 10896 10900 10904 10908 10912 10916 10919 10922 10925 10928 10931 10933 10934 10935 10936 10937 10940 10943 10945 10946 10947 10949 10950 10951 10952 10952 10953 10954 10955 10955 10956 10956 10956 10956 10956 10955 10955 10954 10953 10951 10950 10949 10947 10946 10946 10946 10946 10946 10945 10944 10944 10945 10945 10945 10944 10943 10941 10940 10938 10937 10936 10934
10757 10761 10767 10773 10778 10782 10787 10792 10798 10805 10812 10818 10823 10825 10828 10833 10838 10844 10851 10856 10861 10866 10869 10874 10880 10884 10888 10892 10896 10901 10906 10909 10912 10915 10918 10921 10924 10926 10927 10928 10930 10931 10934 10937 10939 10940 10941 10943 10945 10946 10946 10947 10948 10948 10949 10951 10952 10952 10951 10952 10952 10951 10951 10950 10949 10948 10946 10945 10943 10942 10942 10943 10943 10942 10941 10939 10939 10939 10939 10939 10939 10938 10937 10936 10934 10933 10932 10930
10746 10750 10756 10762 10767 10772 10777 10782 10788 10796 10804 10809 10811 10815 10818 10821 10828 10835 10841 10846 10852 10857 10861 10867 10872 10875 10879 10884 10890 10895 10899 10902 10906 10908 10910 10914 10917 10919 10920 10922 10924 10926 10929 10931 10933 10934 10935 10937 10939 10941 10941 10942 10943 10943 10944 10946 10946 10947 10947 10947 10947 10947 10947 10946 10945 10944 10942 10941 10939 10937 10937 10939 10940 10940 10938 10936 10935 10935 10935 10935 10934 10934 10933 10931 10930 10929 10927 10926
10735 10740 10745 10752 10757 10762 10766 10772 10779 10787 10793 10797 10799 10803 10806 10810 10818 10826 10831 10837 10843 10848 10853 10859 10863 10867 10872 10877 10883 10888 10891 10895 10899 10901 10904 10908 10911 10911 10912 10916 10919 10920 10923 10926 10927 10927 10928 10930 10933 10935 10936 10937 10938 10938 10938 10940 10941 10941 10942 10942 10942 10943 10942 10941 10940 10939 10938 10937 10935 10932 10931 10933 10936 10936 10934 10933 10932 10932 10931 10931 10930 10929 10928 10927 10926 10924 10922 10921
10725 10730 10735 10741 10747 10751 10756 10763 10770 10776 10781 10784 10788 10792 10796 10802 10810 10816 10822 10828 10833 10839 10845 10850 10855 10860 10864 10869 10875 10880 10884 10888 10891 10894 10898 10901 10902 10902 10906 10910 10912 10914 10917 10920 10920 10921 10922 10923 10927 10930 10930 10931 10932 10932 10932 10935 10935 10936 10936 10937 10938 10938 10937 10937 10935 10934 10933 10932 10931 10928 10925 10926 10930 10931 10930 10929 10929 10928 10927 10926 10925 10924 10923 10922 10921 10919 10917 10916
10715 10719 10724 10730 10736 10741 10746 10753 10759 10765 10770 10774 10778 10782 10786 10793 10800 10806 10812 10818 10824 10830 10836 10841 10846 10852 10856 10861 10868 10872 10876 10880 10884 10887 10891 10893 10893 10895 10899 10902 10905 10908 10911 10913 10913 10914 10915 10917 10921 10923 10924 10925 10926 10926 10927 10928 10928 10930 10931 10932 10933 10932 10932 10932 10930 10929 10928 10927 10926 10924 10919 10920 10923 10924 10925 10925 10924 10923 10923 10922 10921 10920 10918 10917 10916 10914 10912 10910
10705 10709 10714 10720 10726 10731 10737 10743 10749 10754 10759 10764 10767 10771 10778 10784 10790 10796 10803 10808 10815 10822 10828 10833 10838 10843 10849 10855 10860 10864 10868 10873 10876 10880 10883 10884 10886 10889 10892 10895 10898 10901 10904 10906 10906 10907 10909 10912 10914 10916 10918 10920 10921 10921 10921 10920 10922 10925 10926 10926 10927 10927 10927 10927 10925 10924 10922 10921 10921 10919 10915 10914 10916 10917 10919 10920 10920 10918 10917 10916 10915 10914 10913 10912 10911 10909 10907 10905
10696 10700 10705 10711 10717 10722 10728 10733 10738 10744 10749 10753 10757 10762 10769 10774 10780 10787 10794 10799 10806 10814 10819 10824 10829 10835 10841 10846 10851 10856 10861 10865 10869 10872 10875 10877 10878 10881 10884 10887 10890 10893 10896 10899 10899 10901 10904 10906 10907 10910 10913 10914 10914 10914 10913 10914 10918 10920 10920 10919 10921 10921 10921 10921 10920 10919 10917 10915 10915 10913 10910 10909 10909 10909 10912 10914 10914 10913 10912 10911 10910 10909 10908 10907 10905 10904 10902 10900
10688 10691 10696 10702 10707 10713 10718 10722 10728 10734 10739 10743 10748 10753 10758 10763 10770 10777 10784 10790 10797 10804 10809 10814 10820 10826 10831 10836 10842 10848 10852 10857 10861 10864 10867 10869 10871 10874 10876 10879 10882 10886 10889 10891 10893 10895 10898 10900 10901 10903 10905 10906 10907 10907 10907 10909 10913 10914 10913 10913 10915 10916 10916 10916 10915 10913 10912 10911 10909 10906 10905 10904 10902 10903 10906 10907 10906 10906 10905 10905 10904 10903 10902 10901 10900 10898 10897 10895
10680 10683 10687 10693 10698 10703 10708 10713 10719 10725 10729 10733 10738 10743 10748 10753 10759 10767 10774 10780 10787 10793 10799 10804 10810 10816 10822 10828 10834 10839 10844 10849 10853 10856 10859 10861 10864 10866 10868 10871 10875 10878 10881 10884 10887 10890 10891 10893 10894 10896 10897 10898 10900 10902 10901 10903 10906 10907 10907 10908 10909 10910 10910 10910 10909 10908 10907 10905 10903 10901 10900 10898 10896 10898 10901 10901 10900 10898 10898 10898 10897 10896 10895 10895 10893 10892 10891 10890
10672 10675 10678 10684 10689 10694 10699 10704 10709 10714 10718 10723 10729 10733 10737 10743 10749 10757 10765 10771 10777 10783 10789 10795 10801 10808 10814 10821 10826 10831 10837 10841 10845 10848 10851 10854 10856 10858 10861 10863 10866 10870 10874 10877 10881 10883 10884 10885 10887 10888 10890 10891 10893 10894 10895 10897 10898 10900 10901 10903 10903 10904 10904 10904 10903 10902 10901 10899 10898 10897 10895 10891 10889 10893 10895 10894 10893 10893 10892 10891 10890 10889 10888 10887 10886 10885 10884 10883
10664 10667 10670 10675 10681 10685 10689 10694 10699 10703 10708 10714 10719 10723 10727 10733 10739 10747 10755 10761 10766 10773 10779 10786 10793 10800 10806 10812 10817 10823 10828 10833 10836 10840 10843 10846 10849 10851 10854 10856 10858 10861 10866 10869 10873 10875 10876 10878 10880 10881 10882 10884 10886 10887 10889 10890 10891 10893 10895 10897 10897 10898 10898 10898 10897 10896 10895 10894 10892 10892 10890 10885 10883 10886 10888 10885 10885 10886 10885 10884 10883 10882 10881 10880 10878 10877 10876 10875
10657 10660 10663 10667 10672 10676 10680 10684 10689 10694 10699 10705 10709 10713 10718 10723 10729 10737 10745 10751 10757 10764 10771 10778 10785 10792 10797 10802 10807 10814 10819 10824 10828 10832 10835 10838 10841 10843 10846 10847 10849 10852 10856 10860 10865 10868 10869 10872 10873 10874 10875 10877 10879 10880 10882 10883 10884 10886 10889 10891 10891 10891 10891 10891 10891 10890 10888 10888 10887 10886 10884 10880 10878 10880 10880 10878 10878 10878 10877 10876 10875 10874 10873 10872 10870 10869 10868 10867
10649 10653 10656 10659 10663 10667 10671 10675 10680 10685 10690 10696 10701 10705 10709 10714 10720 10727 10734 10741 10748 10755 10762 10769 10776 10781 10786 10792 10799 10805 10810 10815 10820 10823 10827 10830 10832 10835 10837 10838 10840 10843 10847 10852 10857 10860 10863 10866 10867 10867 10869 10871 10871 10872 10874 10876 10878 10881 10884 10885 10884 10882 10883 10884 10885 10884 10882 10882 10881 10879 10878 10876 10875 10874 10873 10872 10872 10871 10870 10869 10869 10868 10868 10866 10865 10864 10862 10860
10642 10646 10649 10652 10655 10659 10663 10667 10671 10676 10682 10687 10692 10695 10699 10704 10710 10717 10725 10733 10740 10746 10753 10760 10765 10771 10777 10783 10791 10797 10802 10807 10811 10814 10818 10821 10823 10826 10828 10830 10832 10835 10840 10845 10849 10853 10856 10859 10861 10861 10863 10864 10864 10864 10867 10869 10872 10877 10878 10876 10874 10874 10876 10878 10878 10877 10877 10876 10875 10873 10871 10871 10870 10869 10867 10866 10865 10865 10864 10863 10863 10863 10862 10861 10860 10858 10856 10854